Flag for U.S.A. Weather past 2 weeks in Mobile, Alabama, U.S.A.

Now
83 °F

Sunny.


Feels Like: 89 °F
Forecast: 71 / 93 °F
Wind: 5 mph from Northeast

Location: Mobile Downtown Airport

Current Time: Sep 1, 2015 at 9:49:31 AM

Latest Report: Sep 1, 2015 at 8:53 AM


Visibility: 10 mi

Pressure: 30.09 "Hg

Humidity: 72%

Dew point: 73 °F

Location of MobileLocation

Historic Weather in Mobile — Graph

°F

Mobile temperature yesterday

Maximum temperature yesterday: 92 °F (at 2:53 PM)
Minimum temperature yesterday: 69 °F (at 6:53 AM)
Average temperature yesterday: 81 °F

Past Weeks' High & Low Weather Summary

 TemperatureHumidityPressure
High96 °F (Aug 23, 2:53 PM)100% (Aug 22, 6:53 AM)30.11 "Hg (Aug 22, 6:53 AM)
Low62 °F (Aug 26, 6:53 AM)32% (Aug 25, 5:53 PM)29.93 "Hg (Aug 24, 5:53 PM)
Average81 °F74%30.01 "Hg
* Reported Aug 17 8:53 AM — Sep 1 8:53 AM, Mobile, Weather by CustomWeather, © 2015

Note: Actual official high and low records may vary slightly from our data, if they occured in-between our weather recording intervals... More about our weather records

Advertising

Mobile weather history for previous 24 hours

 ConditionsComfort  
Time TempWeatherWind HumidityBarometerVisibility
8:53 AM
Tue, Sep 1
83 °FSunny.5 mph72%30.09 "Hg10 mi
7:53 AM79 °FPassing clouds.3 mph79%30.09 "Hg10 mi
6:53 AM72 °FClear.3 mph93%30.09 "Hg10 mi
5:53 AM73 °FClear.No wind90%30.08 "Hg10 mi
4:53 AM72 °FClear.No wind93%30.06 "Hg10 mi
3:53 AM73 °FClear.No wind90%30.06 "Hg10 mi
2:53 AM75 °FClear.3 mph90%30.06 "Hg10 mi
1:53 AM74 °FClear.3 mph91%30.05 "Hg10 mi
12:53 AM74 °FClear.3 mph91%30.06 "Hg10 mi
11:53 PM
Mon, Aug 31
75 °FClear.No wind85%30.06 "Hg10 mi
9:53 PM78 °FClear.3 mph79%30.06 "Hg10 mi
8:53 PM80 °FPassing clouds.3 mph71%30.05 "Hg10 mi
7:53 PM83 °FSunny.No wind63%30.03 "Hg10 mi
6:53 PM86 °FPassing clouds.6 mph57%30.02 "Hg10 mi
5:53 PM89 °FScattered clouds.8 mph53%30.01 "Hg10 mi
4:53 PM91 °FScattered clouds.7 mph47%30.01 "Hg10 mi
3:53 PM92 °FScattered clouds.7 mph46%30.01 "Hg10 mi
2:53 PM92 °FScattered clouds.6 mph44%30.03 "Hg10 mi
1:53 PM91 °FScattered clouds.7 mph49%30.06 "Hg10 mi
12:53 PM89 °FPassing clouds.9 mph53%30.07 "Hg10 mi
11:53 AM89 °FPassing clouds.9 mph55%30.09 "Hg10 mi
10:53 AM90 °FSunny.7 mph52%30.10 "Hg10 mi
9:53 AM87 °FSunny.7 mph59%30.09 "Hg10 mi
Weather by CustomWeather, © 2015

See weather overviewHow to use our weather pages